GFSSE_850_rhum_273.txt.gz
RH
53 23 17 21 31 43 65 70 73 67 71 64 52 42 43 52 50 45 40 36 31 31 29 30 30 27 27 30 32 33 35 37 38 40 41 43 47 54 63 78 92 86 51
61 27 17 18 23 31 52 64 67 68 72 58 45 42 50 54 51 46 42 33 27 24 25 29 31 29 32 34 36 39 38 42 37 56 70 84 43 47 55 64 83 66 64
63 32 23 19 18 21 30 46 62 69 54 39 34 34 38 42 36 39 34 27 27 25 23 22 26 28 28 32 38 41 48 51 41 60 71 79 64 42 46 55 65 64 61
65 38 32 28 23 22 27 33 39 36 33 33 35 36 34 33 37 33 31 32 30 31 31 29 26 26 26 26 29 39 42 54 57 76 80 68 74 54 42 45 52 60 63
69 66 40 39 35 30 24 25 29 31 34 36 36 36 35 32 28 28 30 33 35 37 39 41 41 39 34 30 29 32 46 52 62 68 83 80 89 81 58 46 56 61 62
70 73 48 48 47 43 38 32 30 31 31 30 31 31 31 32 33 36 38 40 43 46 47 48 48 49 49 47 40 33 31 43 59 79 78 70 92 80 81 70 54 52 62
82 67 54 55 56 57 51 45 40 38 36 36 36 34 34 36 40 42 45 47 49 51 53 55 56 57 56 55 54 53 45 36 39 62 62 74 74 80 83 80 68 61 53
91 97 63 63 61 62 58 54 50 48 48 48 45 47 48 48 48 50 51 53 56 60 63 68 72 72 70 67 64 61 59 57 64 64 64 68 74 74 83 88 82 73 69
99 97 92 74 70 69 62 59 58 58 60 64 67 68 64 62 60 62 64 65 71 76 74 70 71 71 70 69 72 72 72 71 67 91 87 77 76 62 59 64 78 82 77
98 98 96 97 84 72 65 64 66 64 63 69 78 79 80 77 74 71 71 78 82 75 70 69 71 74 72 71 70 67 75 82 86 88 89 81 73 69 63 57 59 54 74
99 99 99 94 81 82 75 69 63 59 53 52 76 89 90 93 78 79 75 74 70 68 66 64 59 51 45 50 49 59 68 73 75 77 71 62 66 72 77 76 80 73 51
84 87 69 73 72 66 57 73 65 58 60 67 86 98 97 84 82 77 65 55 48 42 41 36 37 38 47 56 58 45 48 32 32 37 51 66 70 73 68 74 70 69 72
49 52 64 63 72 68 73 70 72 81 74 78 84 82 77 68 62 69 69 62 42 38 43 49 36 36 34 33 32 32 37 57 53 49 52 25 24 74 81 75 82 76 79
61 65 72 85 76 67 72 76 90 87 77 76 70 60 54 53 51 42 39 39 40 39 38 36 36 34 35 34 33 29 28 39 67 67 66 54 27 18 14 26 58 85 91
63 82 100 98 94 82 76 84 92 88 81 71 59 50 44 42 45 46 53 60 55 60 44 50 52 59 56 57 55 46 62 68 58 74 77 71 59 48 46 40 20 31 56
94 99 99 100 99 98 99 96 81 62 53 47 44 44 45 53 69 74 78 76 75 74 73 74 72 67 64 61 57 61 77 70 77 79 74 77 71 60 58 58 56 54 40
99 97 97 89 77 56 64 67 65 69 72 70 48 48 54 69 81 81 83 82 80 77 73 69 66 61 58 55 55 52 60 74 68 73 70 74 74 73 66 61 58 59 63
95 84 77 59 72 74 73 69 71 75 76 81 86 81 61 62 72 84 82 71 78 74 67 63 63 60 58 55 51 46 51 57 73 64 63 69 69 66 65 63 52 55 60
78 67 58 46 43 34 41 44 58 74 78 81 85 87 65 66 82 87 88 84 77 71 73 67 67 66 62 62 50 46 52 54 66 57 60 59 63 68 66 70 68 66 58
65 64 47 46 36 39 43 47 62 68 82 86 93 86 94 89 79 81 85 77 72 76 74 73 74 63 58 62 54 49 50 55 64 61 53 53 63 65 64 67 68 68 70
60 56 56 42 43 61 70 69 74 76 85 90 95 95 76 60 50 39 81 75 58 73 77 78 71 63 52 59 54 51 39 41 59 59 58 55 70 60 62 64 65 67 73
59 59 61 70 71 68 70 68 71 77 85 93 95 61 59 52 49 56 33 45 30 59 40 35 17 57 50 52 59 54 44 42 54 54 64 64 60 58 52 56 58 71 63
61 63 64 68 68 65 71 76 74 80 86 83 86 87 62 56 51 45 10 3 8 19 21 26 25 55 52 51 56 59 57 51 56 53 51 50 53 46 45 47 48 50 52
65 67 68 69 68 62 73 74 73 65 70 83 86 69 61 60 50 32 2 3 7 17 8 17 26 40 64 55 53 54 58 58 52 45 42 38 40 36 38 41 43 47 44
66 71 71 69 66 68 72 76 74 75 84 83 86 81 76 68 51 9 2 5 7 9 6 7 11 43 66 63 57 55 51 48 46 46 41 38 38 38 40 43 45 44 44
64 69 72 70 71 75 78 81 84 89 84 81 85 76 71 64 53 3 4 8 8 6 6 9 22 70 70 70 67 62 55 49 48 49 46 44 42 42 45 45 45 46 48

GFSSE_850_rhum_276.txt.gz
RH
15 13 24 36 44 60 64 71 67 67 66 53 44 36 39 37 36 34 30 24 23 23 22 25 26 28 32 30 29 30 33 36 41 68 64 38 40 51 68 86 88 67 49
18 14 16 26 33 46 58 64 66 68 64 50 42 42 43 38 33 29 23 22 20 20 21 22 24 26 26 28 30 34 37 36 66 72 83 81 42 38 53 77 90 60 68
22 16 16 18 22 28 42 56 63 62 47 39 41 40 36 30 31 27 25 26 27 26 25 24 24 24 26 26 33 36 44 42 69 80 87 92 72 45 42 51 60 63 63
29 25 22 21 22 23 34 45 46 40 39 40 40 38 33 35 33 34 34 34 34 36 36 36 34 31 29 31 37 45 47 56 77 79 79 81 84 75 40 45 48 54 59
59 34 32 30 28 35 33 36 38 43 44 45 44 44 42 38 36 37 37 38 40 42 44 45 46 45 42 37 33 36 49 54 56 78 74 74 61 71 65 46 49 67 62
63 43 42 40 37 36 45 43 43 46 50 52 47 42 40 42 43 41 42 45 46 48 50 51 52 52 53 52 49 44 36 38 52 65 72 90 79 78 73 77 58 44 53
64 50 50 49 49 43 40 41 41 40 40 41 42 44 44 45 47 50 52 56 55 56 59 62 65 68 68 66 64 59 55 49 46 62 87 74 83 78 75 81 84 74 53
72 56 55 56 57 53 51 53 52 50 48 49 57 60 65 62 61 62 61 63 65 70 74 72 71 67 64 65 67 68 69 64 59 77 79 80 78 72 67 76 81 86 80
83 67 62 66 65 61 55 64 66 66 75 79 70 61 78 72 68 68 73 76 78 72 67 64 66 69 67 62 61 61 64 72 75 78 94 89 83 79 72 52 60 68 78
98 95 92 95 74 69 60 60 67 54 63 63 81 60 79 85 83 84 90 79 74 68 64 63 61 59 54 51 50 51 59 67 70 80 82 73 70 72 76 73 72 76 78
91 97 99 100 97 80 66 63 52 63 64 68 58 66 99 95 81 74 64 57 48 48 42 40 37 39 41 53 51 44 39 38 35 42 52 60 66 70 75 75 70 72 85
92 91 73 76 65 73 63 71 68 64 72 82 62 74 89 79 72 68 61 54 44 40 46 46 37 36 36 45 39 36 38 46 55 52 48 46 35 24 57 80 81 77 86
75 77 69 58 70 77 67 74 75 68 75 92 84 74 64 55 49 51 43 40 39 40 40 39 37 35 35 34 34 32 32 41 65 62 63 62 60 34 23 19 32 62 86
67 83 63 67 68 72 70 85 85 88 79 71 62 57 52 51 44 42 43 42 44 42 41 47 51 54 50 46 46 42 45 53 64 77 76 72 65 58 53 50 40 25 35
80 81 90 90 83 80 84 92 89 85 72 59 50 46 46 47 46 46 51 59 59 55 63 63 65 67 65 59 58 57 70 72 75 74 75 76 69 62 60 58 58 57 55
88 86 98 98 98 98 98 96 76 57 50 45 45 47 49 58 78 70 68 70 71 67 70 69 63 60 57 56 56 54 65 69 65 73 76 73 70 67 62 60 56 57 60
91 92 88 74 71 65 59 66 71 71 57 46 49 55 56 65 76 81 66 63 67 57 50 54 51 55 55 47 47 47 53 61 67 70 64 70 66 67 66 66 57 60 54
84 78 71 62 55 51 58 66 69 68 78 81 72 57 55 57 61 59 45 46 64 48 15 18 44 47 62 44 46 47 46 55 64 57 61 63 67 62 67 70 69 70 65
76 70 69 54 45 44 43 40 59 70 76 82 81 60 54 56 77 80 37 63 72 34 13 16 35 49 59 35 32 46 48 56 67 62 57 59 65 62 64 64 66 67 72
69 63 43 37 36 40 40 45 54 64 86 88 70 67 70 54 40 77 57 46 73 39 18 13 25 50 55 35 17 38 45 55 58 65 59 63 69 60 57 62 64 72 76
55 43 38 38 41 46 59 70 77 85 90 91 80 81 59 49 41 32 23 17 56 36 14 10 8 17 42 48 23 38 41 55 58 58 63 60 64 56 48 52 52 57 53
50 47 44 47 73 72 68 70 74 82 83 74 70 65 60 50 40 21 3 5 10 10 7 7 7 12 34 53 52 46 38 41 58 49 50 50 46 45 39 39 42 39 48
56 50 62 70 70 69 69 62 61 74 84 86 90 74 62 53 38 12 2 4 7 7 6 8 10 17 30 47 55 52 58 58 34 50 40 36 40 36 38 38 41 44 43
59 58 65 70 69 63 71 68 74 73 78 79 83 77 65 49 38 8 2 5 6 6 5 7 15 22 24 43 32 48 53 51 49 51 43 39 37 40 39 40 45 46 49
64 66 69 70 69 66 71 74 71 73 75 84 82 77 72 58 42 10 3 5 6 5 5 9 19 28 22 32 34 43 55 50 50 51 53 53 48 42 44 43 49 45 46
65 70 72 69 68 70 71 77 77 80 81 82 82 77 72 64 49 14 3 5 6 5 6 10 30 43 26 30 26 34 58 58 59 59 59 60 59 51 46 48 44 46 43

GFSSE_850_rhum_279.txt.gz
RH
23 34 40 46 52 60 63 64 64 64 54 45 39 42 40 36 32 25 21 20 20 21 22 22 24 24 29 33 37 35 45 63 72 68 57 43 48 53 63 81 64 59 51
14 25 35 40 49 58 67 69 72 67 50 42 45 42 36 32 31 25 26 25 24 23 23 24 24 26 26 30 37 41 65 75 84 90 85 60 50 45 53 67 63 62 69
13 19 25 30 41 59 66 71 72 51 44 45 43 37 32 35 31 32 32 32 31 30 29 28 27 26 26 30 35 43 51 78 85 84 92 92 69 50 40 46 55 61 61
16 19 22 27 41 57 72 65 48 46 47 46 41 37 39 36 36 37 39 40 42 41 41 41 40 39 36 31 32 41 55 79 82 93 85 88 86 77 58 39 47 55 59
26 26 27 28 30 42 44 43 48 54 56 51 49 47 41 39 40 42 44 46 49 51 52 52 52 51 50 48 44 35 40 56 70 73 75 85 87 81 75 67 44 55 63
36 35 34 34 33 30 34 40 44 48 50 50 48 54 52 45 46 50 55 56 57 59 61 64 66 68 68 66 62 56 48 36 50 67 91 93 89 83 81 76 76 60 52
44 45 45 43 40 36 35 32 38 42 46 49 52 54 52 57 58 61 61 61 64 70 74 71 70 70 70 69 70 70 68 56 63 74 79 83 85 84 77 77 81 84 76
49 52 52 52 50 45 46 42 44 49 49 47 54 61 62 61 63 64 67 71 80 78 73 70 70 69 66 63 64 67 73 77 66 77 95 90 84 81 67 74 70 80 88
58 59 61 62 60 54 56 46 48 56 60 64 60 63 61 58 73 78 79 76 71 65 60 59 58 57 54 52 48 50 63 84 83 91 92 95 82 77 75 81 73 64 65
79 74 70 70 68 67 58 52 55 44 56 56 56 54 57 70 76 72 69 63 58 52 47 42 43 44 46 46 42 38 41 42 45 54 65 65 63 72 79 83 81 76 76
100 99 92 80 72 67 58 55 52 58 61 60 69 59 49 71 71 69 63 57 49 44 40 37 37 40 38 38 39 39 44 44 50 54 52 54 53 34 24 52 77 81 77
100 99 93 73 67 71 64 63 63 64 64 67 69 62 63 71 62 60 48 42 41 41 39 39 37 36 35 35 34 33 44 59 65 64 69 72 64 53 37 24 29 53 80
98 99 84 67 65 68 62 70 76 72 66 73 75 70 60 54 50 44 42 42 42 40 38 38 39 41 45 47 46 43 44 56 69 75 77 71 56 58 58 56 51 35 25
78 70 72 70 67 72 68 74 73 71 74 71 65 59 52 46 45 45 45 44 40 39 41 48 50 61 61 59 56 56 62 62 72 76 76 69 62 62 60 62 61 61 80
79 82 83 81 78 77 77 76 80 81 76 63 51 47 47 46 47 47 45 44 46 51 49 54 61 62 60 59 56 55 69 67 64 75 77 73 65 66 63 57 66 69 92
98 96 94 99 95 97 94 89 76 56 47 46 46 47 48 51 49 52 51 51 49 55 60 54 59 55 49 52 51 53 74 75 66 67 69 69 64 68 68 61 75 76 92
96 94 94 86 84 87 77 59 52 46 48 47 49 52 54 57 56 52 46 49 42 29 21 21 32 44 30 43 45 47 53 66 66 63 66 68 65 68 66 66 86 86 90
81 69 59 58 58 61 67 72 71 66 55 49 49 49 50 52 54 46 18 20 19 9 6 13 13 22 20 27 40 41 52 66 58 56 69 68 66 66 62 61 76 76 72
73 65 58 56 56 58 66 66 66 67 59 54 49 52 53 48 36 24 16 16 16 6 6 7 11 11 10 6 12 43 56 66 61 58 64 68 66 60 55 57 68 73 71
71 61 48 42 39 45 49 55 56 55 55 55 53 52 45 32 31 15 20 10 10 7 6 6 7 11 7 6 43 47 58 63 61 60 61 62 62 54 47 46 51 53 56
62 48 37 35 41 43 48 54 60 64 66 58 54 51 46 36 26 6 5 6 7 6 6 6 7 9 8 5 35 40 59 57 60 60 49 49 44 40 35 35 36 41 48
45 40 36 40 55 60 67 72 73 68 77 72 67 58 56 45 27 3 3 6 8 6 5 6 7 10 13 10 8 14 38 50 44 50 42 39 39 38 36 34 38 48 42
42 41 39 51 69 71 70 69 70 77 82 81 79 70 59 40 27 4 3 5 7 6 5 6 7 8 14 26 21 18 32 33 17 46 21 18 32 32 35 36 54 48 48
42 43 47 52 69 68 63 61 74 78 84 85 80 70 60 48 37 10 3 5 6 5 5 7 9 9 9 12 25 42 51 48 45 36 25 21 25 20 23 42 51 50 48
45 48 56 61 62 62 60 67 78 79 85 82 77 70 68 58 44 30 2 4 6 5 5 8 10 12 10 12 18 29 33 37 44 50 51 28 19 18 20 41 46 52 47
54 58 66 66 60 61 74 75 76 75 73 77 80 78 73 67 55 44 4 4 5 5 6 9 15 14 15 14 16 20 34 51 64 64 62 53 39 24 20 31 48 50 43

GFSSE_850_rhum_282.txt.gz
RH
42 50 65 62 62 63 62 66 62 51 43 37 36 34 30 28 22 21 21 22 25 26 25 27 28 30 39 39 42 65 81 85 80 73 51 55 47 52 70 62 60 54 55
41 55 67 70 72 75 70 71 61 47 42 42 40 34 33 28 25 26 26 26 26 27 28 27 26 30 37 45 53 73 83 91 90 88 85 69 62 44 44 52 53 60 65
38 46 60 67 71 73 75 72 52 44 44 41 37 38 37 32 31 33 35 36 37 37 37 36 34 32 36 45 52 57 84 92 87 84 85 88 74 59 48 45 49 58 63
32 35 43 49 53 58 64 49 44 47 43 37 36 39 36 33 34 38 43 47 49 50 50 51 50 48 44 37 49 57 72 78 86 82 76 80 88 83 78 60 51 52 70
26 26 34 37 40 37 33 36 38 40 45 42 40 38 40 42 45 47 51 54 55 58 61 65 67 67 63 58 50 40 52 61 69 65 76 68 88 88 82 76 67 52 58
27 31 34 34 33 36 35 35 39 40 40 40 40 42 43 46 52 53 55 58 64 70 70 68 70 73 72 70 70 63 56 42 60 74 79 80 88 90 82 78 82 79 60
36 39 40 41 40 39 37 33 34 32 31 36 38 44 52 54 55 59 63 67 72 73 66 64 64 66 66 66 70 73 72 64 65 85 85 82 86 85 80 75 76 88 86
43 46 47 46 43 40 40 37 46 46 47 55 60 58 58 61 61 66 72 73 70 66 64 63 64 62 58 54 64 78 72 81 83 82 88 87 85 95 88 75 68 74 85
54 56 56 54 51 47 47 54 56 56 51 54 61 58 60 71 64 64 68 64 60 56 51 48 49 52 53 52 47 56 67 78 80 77 75 75 71 75 81 86 81 74 69
63 63 64 64 62 60 62 67 53 55 54 52 57 55 66 71 63 64 60 57 52 46 42 43 44 46 48 49 50 51 49 50 51 51 51 52 50 41 34 73 83 80 74
85 81 78 74 69 66 69 61 58 61 63 62 64 62 63 69 60 59 55 49 44 41 42 39 38 37 38 38 37 38 52 62 64 61 61 67 59 54 56 34 51 74 82
97 92 83 84 76 77 77 70 69 61 66 71 67 67 66 62 56 50 44 42 41 40 39 38 37 37 40 42 43 40 51 69 68 68 69 64 62 95 94 94 78 69 65
97 99 100 81 87 79 72 74 73 70 74 77 71 66 60 56 52 46 43 42 41 39 38 38 39 43 49 48 60 60 62 70 75 74 72 63 58 90 91 85 98 94 92
98 100 84 82 85 83 78 77 73 74 71 65 63 62 58 50 45 43 41 41 39 39 39 40 45 56 58 55 58 74 70 66 74 76 72 70 60 74 96 97 100 99 99
89 70 79 87 88 84 83 81 79 75 68 65 60 49 43 42 44 43 40 40 42 43 44 47 46 48 57 56 55 76 72 72 72 72 70 67 64 64 84 92 97 100 99
84 82 84 96 98 97 92 87 78 62 51 44 40 40 42 46 43 41 42 42 40 30 30 34 31 34 42 51 54 75 70 68 67 68 69 68 65 64 61 56 88 98 98
90 95 99 100 99 95 82 62 49 44 40 40 42 43 41 41 42 42 31 22 16 9 11 16 15 25 31 48 49 54 68 64 67 67 68 68 67 65 63 59 54 57 98
90 96 92 81 76 66 56 48 42 45 45 42 41 39 42 44 42 33 17 14 11 6 6 7 9 12 17 27 39 49 63 62 70 70 68 67 64 62 61 58 61 78 86
72 66 59 56 56 53 48 48 47 46 42 41 42 40 39 30 18 10 6 8 6 5 5 5 5 5 5 13 38 60 58 64 69 68 66 64 58 58 54 45 44 57 73
67 62 54 50 51 50 48 51 44 45 41 42 43 42 35 22 14 4 3 5 6 6 5 5 5 5 7 53 63 62 63 62 60 58 56 51 47 42 37 28 32 39 49
66 63 50 46 51 46 43 42 44 47 48 46 48 47 42 30 15 3 2 4 6 5 5 5 5 4 9 55 61 62 61 59 57 53 50 48 45 38 34 30 38 44 44
60 53 44 38 42 45 47 51 52 55 60 60 57 54 46 26 14 2 3 4 6 5 5 6 5 4 4 11 34 48 61 61 50 43 35 25 28 33 32 40 51 50 51
53 43 38 40 50 54 54 58 68 72 68 62 68 62 52 33 23 5 3 5 5 5 5 7 7 6 5 5 5 7 21 32 18 38 26 16 17 22 29 45 51 50 50
44 41 39 50 53 54 61 62 58 58 62 71 75 66 55 48 37 22 3 4 5 5 5 7 8 8 8 6 8 8 10 13 17 17 19 15 16 16 21 44 51 50 47
41 42 43 53 55 57 64 60 64 69 76 79 78 73 64 56 50 39 8 3 5 5 5 7 9 10 9 9 10 13 15 19 22 31 34 16 12 15 19 43 49 53 48
41 44 51 52 55 65 71 66 68 71 73 74 73 73 65 60 59 51 19 3 4 5 5 7 10 12 12 11 11 13 17 20 23 31 28 23 20 16 16 25 34 40 38

GFSSE_850_rhum_288.txt.gz
RH
94 91 80 70 64 63 57 49 43 36 35 32 28 24 22 22 24 27 28 29 30 31 32 35 38 42 64 72 76 77 78 78 76 68 66 58 57 60 60 58 52 55 57
88 91 84 76 68 66 61 49 42 36 34 31 28 25 27 30 32 33 35 36 37 37 35 37 39 44 55 67 78 81 77 81 83 78 68 62 53 49 54 60 63 59 57
93 94 86 80 74 71 63 47 38 38 36 31 31 31 34 37 40 43 46 48 49 50 49 44 40 40 45 50 59 77 80 80 78 80 81 76 70 61 59 66 64 62 61
98 96 87 82 74 67 55 40 41 38 35 36 32 34 38 42 46 50 52 54 57 60 60 61 58 53 44 43 50 58 74 73 75 74 82 78 83 86 85 71 69 70 73
94 91 81 78 69 55 38 41 44 45 37 37 37 41 43 47 51 53 57 64 67 67 65 65 65 67 67 64 56 47 49 66 77 86 82 88 90 90 89 83 75 66 64
82 80 77 71 52 39 39 42 38 47 39 42 44 46 50 52 55 60 64 67 65 64 63 62 60 62 64 68 72 71 68 83 90 92 96 94 94 97 85 85 92 88 74
62 72 68 51 44 46 50 55 35 43 47 50 57 59 60 60 62 68 66 64 61 60 60 61 60 58 57 64 72 81 82 81 91 93 92 95 97 95 95 88 85 94 91
51 53 46 45 43 43 45 54 44 51 59 62 63 68 69 72 60 62 59 57 54 52 50 50 50 51 49 47 52 65 77 80 84 84 82 80 76 90 97 94 91 78 81
42 44 48 51 49 51 53 60 66 69 67 64 61 61 65 65 61 58 56 53 50 46 43 41 41 42 40 40 42 43 44 46 46 46 48 55 61 61 86 99 99 98 87
49 51 50 52 54 57 65 73 70 69 72 70 69 66 69 64 59 56 53 48 44 42 40 39 39 38 38 37 39 45 48 52 54 54 54 75 81 83 59 85 99 99 98
60 58 58 61 66 73 73 67 72 72 76 74 70 72 66 59 54 50 46 44 42 42 41 41 42 43 43 42 46 48 49 51 55 56 66 85 98 97 100 96 69 100 99
75 72 74 76 76 79 72 72 74 78 78 81 77 70 60 55 50 46 44 43 41 42 43 46 48 49 52 52 51 53 55 60 60 57 80 92 98 97 96 96 95 92 98
96 91 96 85 85 86 80 78 81 81 80 77 67 59 56 50 47 44 41 41 42 44 44 49 53 53 55 60 62 63 64 64 62 59 69 70 94 93 92 89 88 98 100
99 99 99 99 94 86 82 84 82 77 68 62 59 57 52 44 41 38 35 34 36 38 43 47 50 54 55 61 69 70 69 67 62 59 61 56 58 92 98 95 88 89 93
100 99 98 100 98 90 87 83 74 68 63 62 55 50 49 42 36 36 35 33 29 28 27 31 45 52 55 65 71 72 70 69 66 63 59 56 51 49 58 90 87 98 95
98 98 99 99 96 92 86 78 74 68 63 52 43 39 37 37 35 32 24 17 10 6 8 15 24 38 57 69 72 76 72 71 70 67 64 62 60 57 57 78 69 99 99
99 92 93 92 95 92 88 81 71 56 55 51 42 37 33 30 25 18 11 6 4 4 6 7 10 25 48 66 70 77 75 74 70 68 68 66 64 61 59 55 48 45 98
84 82 93 99 96 94 89 65 51 47 52 46 40 35 28 18 10 6 4 4 4 5 5 5 6 14 38 52 66 78 78 73 69 68 66 65 62 57 53 49 43 36 43
79 90 95 89 89 81 63 53 47 47 45 41 37 31 22 14 7 4 3 4 5 5 5 4 5 9 18 51 70 77 71 68 66 64 61 57 54 52 47 38 30 27 35
80 97 87 82 77 63 56 54 47 45 39 38 35 31 23 12 5 3 3 4 5 5 5 4 6 27 37 49 64 66 65 63 59 57 55 52 47 37 32 28 29 29 29
87 88 84 66 60 56 52 49 44 39 37 37 38 35 22 15 6 3 3 4 5 5 5 5 8 39 58 62 63 62 57 53 53 51 42 35 29 25 27 32 34 35 35
79 78 66 53 48 50 50 46 42 41 39 39 38 38 30 24 13 4 3 4 4 5 6 6 11 30 48 61 60 58 57 54 51 49 42 30 19 18 21 27 36 35 35
74 63 52 46 44 48 52 49 48 45 40 41 40 42 37 34 28 13 3 3 4 5 5 6 7 14 33 50 59 56 48 59 59 52 44 26 18 18 19 24 29 31 31
68 59 51 45 44 49 49 48 42 39 34 41 47 46 44 42 39 32 14 2 3 4 5 5 7 7 6 8 11 14 25 14 21 25 33 28 18 18 20 25 30 28 25
71 62 52 46 44 48 44 47 47 52 50 50 49 52 52 47 46 42 33 8 2 3 4 5 6 7 7 7 7 8 9 10 12 12 17 21 17 18 20 27 23 25 26
76 66 51 47 42 45 48 49 49 52 55 54 50 51 52 49 49 50 47 26 4 3 4 4 6 8 8 8 8 8 8 10 11 12 14 14 15 19 22 24 28 25 22